Location: Calberlah
(52.4230°N, 10.6240°E)
Time: 20:35:05
(UTC+00:00)

Meteor 1-14 Rocket - Pass Details

Date: 19 May 2025
Orbit: 833 x 917 km, 81.3° (Epoch: 20 June)

Event Time Altitude Azimuth Distance (km) Brightness Sun altitude
Rises 21:11:36 0° 346° (NNW) 3,407 9.0 -12.9°
Reaches altitude 10° 21:14:00 10° 346° (NNW) 2,475 8.0 -13.0°
Maximum altitude 21:19:37 84° 260° (W) 866 4.3 -13.4°
Enters shadow 21:23:58 18° 173° (S) 2,000 5.6 -13.7°
